Hourly Weather Makadi Bey

Today, 7 August, Friday

Time Temperature Precipitation Wind Pressure Humidity
00:00 +26°C° 0 mm 1 mps 702 mmHg 30%
01:00 +26°C° 0 mm 1 mps 702 mmHg 30%
02:00 +25°C° 0 mm 1 mps 702 mmHg 29%
03:00 +25°C° 0 mm 1 mps 702 mmHg 30%
04:00 +25°C° 0 mm 1 mps 702 mmHg 30%
05:00 +24°C° 0 mm 1 mps 702 mmHg 31%
06:00 +27°C° 0 mm 1 mps 703 mmHg 28%
07:00 +30°C° 0 mm 1 mps 704 mmHg 25%
08:00 +33°C° 0 mm 1 mps 704 mmHg 21%
09:00 +34°C° 0 mm 1 mps 705 mmHg 18%
10:00 +37°C° 0 mm 2 mps 705 mmHg 15%
11:00 +38°C° 0 mm 2 mps 705 mmHg 12%
12:00 +39°C° 0 mm 3 mps 705 mmHg 12%
13:00 +40°C° 0 mm 3 mps 704 mmHg 11%
14:00 +41°C° 0 mm 4 mps 704 mmHg 11%
15:00 +41°C° 0 mm 4 mps 703 mmHg 12%
16:00 +40°C° 0 mm 4 mps 703 mmHg 12%
17:00 +40°C° 0 mm 5 mps 703 mmHg 13%
18:00 +36°C° 0 mm 4 mps 702 mmHg 16%
19:00 +34°C° 0 mm 3 mps 702 mmHg 18%
20:00 +30°C° 0 mm 3 mps 702 mmHg 21%
21:00 +31°C° 0 mm 3 mps 702 mmHg 20%
22:00 +32°C° 0 mm 4 mps 702 mmHg 19%
23:00 +32°C° 0 mm 4 mps 702 mmHg 18%

Tomorrow, 8 August, Saturday

Time Temperature Precipitation Wind Pressure Humidity
00:00 +30°C° 0 mm 4 mps 702 mmHg 20%
01:00 +29°C° 0 mm 3 mps 701 mmHg 22%
02:00 +28°C° 0 mm 3 mps 701 mmHg 24%
03:00 +28°C° 0 mm 2 mps 701 mmHg 25%
04:00 +27°C° 0 mm 2 mps 701 mmHg 25%
05:00 +27°C° 0 mm 2 mps 701 mmHg 26%
06:00 +30°C° 0 mm 3 mps 702 mmHg 21%
07:00 +34°C° 0 mm 4 mps 703 mmHg 16%
08:00 +37°C° 0 mm 4 mps 704 mmHg 11%
09:00 +40°C° 0 mm 6 mps 704 mmHg 11%
10:00 +41°C° 0 mm 7 mps 704 mmHg 10%
11:00 +44°C° 0 mm 8 mps 704 mmHg 9%
12:00 +44°C° 0 mm 8 mps 704 mmHg 9%
13:00 +44°C° 0 mm 8 mps 703 mmHg 9%
14:00 +45°C° 0 mm 8 mps 702 mmHg 8%
15:00 +44°C° 0 mm 8 mps 702 mmHg 10%
16:00 +43°C° 0 mm 8 mps 702 mmHg 11%
17:00 +43°C° 0 mm 8 mps 701 mmHg 12%
18:00 +40°C° 0 mm 6 mps 701 mmHg 15%
19:00 +37°C° 0 mm 5 mps 701 mmHg 18%
20:00 +34°C° 0 mm 4 mps 701 mmHg 21%
21:00 +34°C° 0 mm 4 mps 701 mmHg 21%
22:00 +34°C° 0 mm 4 mps 701 mmHg 20%
23:00 +33°C° 0 mm 4 mps 702 mmHg 20%

Day after tomorrow, 9 August, Sunday

Time Temperature Precipitation Wind Pressure Humidity
00:00 +33°C° 0 mm 4 mps 701 mmHg 20%
01:00 +33°C° 0 mm 5 mps 701 mmHg 20%
02:00 +32°C° 0 mm 5 mps 701 mmHg 20%
03:00 +32°C° 0 mm 4 mps 701 mmHg 21%
04:00 +30°C° 0 mm 4 mps 701 mmHg 23%
05:00 +29°C° 0 mm 4 mps 701 mmHg 24%
06:00 +33°C° 0 mm 6 mps 702 mmHg 21%
07:00 +35°C° 0 mm 7 mps 702 mmHg 18%
08:00 +39°C° 0 mm 9 mps 703 mmHg 15%
09:00 +40°C° 0 mm 9 mps 703 mmHg 14%
10:00 +42°C° 0 mm 9 mps 703 mmHg 12%
11:00 +44°C° 0 mm 8 mps 704 mmHg 11%
12:00 +44°C° 0 mm 8 mps 703 mmHg 11%
13:00 +44°C° 0 mm 7 mps 703 mmHg 10%
14:00 +45°C° 0 mm 7 mps 703 mmHg 10%
15:00 +44°C° 0 mm 7 mps 703 mmHg 10%
16:00 +44°C° 0 mm 7 mps 702 mmHg 11%
17:00 +43°C° 0 mm 7 mps 702 mmHg 12%
18:00 +40°C° 0 mm 6 mps 702 mmHg 15%
19:00 +36°C° 0 mm 4 mps 702 mmHg 18%
20:00 +34°C° 0 mm 3 mps 702 mmHg 21%
21:00 +33°C° 0 mm 3 mps 702 mmHg 22%
22:00 +31°C° 0 mm 3 mps 702 mmHg 24%
23:00 +31°C° 0 mm 2 mps 702 mmHg 25%

10 August, Monday

Time Temperature Precipitation Wind Pressure Humidity
00:00 +30°C° 0 mm 2 mps 702 mmHg 27%
01:00 +29°C° 0 mm 1 mps 702 mmHg 29%
02:00 +28°C° 0 mm 1 mps 701 mmHg 31%
03:00 +27°C° 0 mm 1 mps 701 mmHg 31%
04:00 +25°C° 0 mm 0 mps 701 mmHg 32%
05:00 +24°C° 0 mm 0 mps 701 mmHg 33%
06:00 +27°C° 0 mm 0 mps 702 mmHg 29%
07:00 +32°C° 0 mm 1 mps 703 mmHg 25%
08:00 +34°C° 0 mm 1 mps 704 mmHg 21%
09:00 +37°C° 0 mm 2 mps 704 mmHg 19%
10:00 +39°C° 0 mm 3 mps 704 mmHg 17%
11:00 +42°C° 0 mm 5 mps 705 mmHg 15%
12:00 +42°C° 0 mm 5 mps 705 mmHg 14%
13:00 +44°C° 0 mm 6 mps 704 mmHg 13%
14:00 +45°C° 0 mm 6 mps 704 mmHg 11%
15:00 +44°C° 0 mm 7 mps 704 mmHg 12%
16:00 +43°C° 0 mm 7 mps 703 mmHg 13%
17:00 +41°C° 0 mm 8 mps 703 mmHg 14%
18:00 +39°C° 0 mm 6 mps 703 mmHg 18%
19:00 +35°C° 0 mm 5 mps 703 mmHg 21%
20:00 +33°C° 0 mm 3 mps 703 mmHg 24%
21:00 +31°C° 0 mm 2 mps 703 mmHg 27%
22:00 +30°C° 0 mm 2 mps 703 mmHg 31%
23:00 +28°C° 0 mm 1 mps 703 mmHg 34%

11 August, Tuesday

Time Temperature Precipitation Wind Pressure Humidity
00:00 +28°C° 0 mm 1 mps 702 mmHg 34%
01:00 +27°C° 0 mm 1 mps 702 mmHg 35%
02:00 +27°C° 0 mm 1 mps 702 mmHg 35%
03:00 +24°C° 0 mm 0 mps 702 mmHg 36%
04:00 +24°C° 0 mm 0 mps 702 mmHg 36%
05:00 +23°C° 0 mm 0 mps 702 mmHg 36%
06:00 +28°C° 0 mm 1 mps 703 mmHg 31%
07:00 +31°C° 0 mm 1 mps 704 mmHg 26%
08:00 +35°C° 0 mm 2 mps 704 mmHg 20%
09:00 +36°C° 0 mm 4 mps 704 mmHg 18%
10:00 +39°C° 0 mm 5 mps 705 mmHg 15%
11:00 +41°C° 0 mm 7 mps 705 mmHg 12%
12:00 +43°C° 0 mm 7 mps 704 mmHg 11%
13:00 +43°C° 0 mm 8 mps 704 mmHg 11%
14:00 +44°C° 0 mm 9 mps 704 mmHg 10%
15:00 +43°C° 0 mm 8 mps 703 mmHg 11%
16:00 +41°C° 0 mm 8 mps 703 mmHg 12%
17:00 +40°C° 0 mm 8 mps 702 mmHg 14%
18:00 +38°C° 0 mm 7 mps 702 mmHg 17%
19:00 +34°C° 0 mm 5 mps 702 mmHg 21%
20:00 +32°C° 0 mm 4 mps 702 mmHg 25%
21:00 +30°C° 0 mm 4 mps 702 mmHg 26%
22:00 +30°C° 0 mm 3 mps 702 mmHg 28%
23:00 +29°C° 0 mm 2 mps 702 mmHg 29%

12 August, Wednesday

Time Temperature Precipitation Wind Pressure Humidity
00:00 +28°C° 0 mm 2 mps 701 mmHg 31%
01:00 +28°C° 0 mm 2 mps 701 mmHg 33%
02:00 +27°C° 0 mm 1 mps 701 mmHg 35%
03:00 +26°C° 0 mm 1 mps 701 mmHg 36%
04:00 +26°C° 0 mm 1 mps 701 mmHg 38%
05:00 +25°C° 0 mm 1 mps 701 mmHg 40%
06:00 +28°C° 0 mm 2 mps 701 mmHg 35%
07:00 +30°C° 0 mm 3 mps 702 mmHg 30%
08:00 +34°C° 0 mm 3 mps 702 mmHg 25%
09:00 +35°C° 0 mm 4 mps 703 mmHg 23%
10:00 +37°C° 0 mm 5 mps 703 mmHg 21%
11:00 +39°C° 0 mm 5 mps 703 mmHg 19%
12:00 +40°C° 0 mm 6 mps 702 mmHg 18%
13:00 +40°C° 0 mm 6 mps 702 mmHg 17%
14:00 +41°C° 0 mm 7 mps 702 mmHg 17%
15:00 +40°C° 0 mm 7 mps 701 mmHg 17%
16:00 +39°C° 0 mm 6 mps 701 mmHg 17%
17:00 +39°C° 0 mm 6 mps 701 mmHg 17%
18:00 +35°C° 0 mm 4 mps 701 mmHg 21%
19:00 +31°C° 0 mm 3 mps 701 mmHg 26%
20:00 +28°C° 0 mm 1 mps 701 mmHg 31%
21:00 +28°C° 0 mm 1 mps 701 mmHg 31%
22:00 +28°C° 0 mm 2 mps 701 mmHg 32%
23:00 +28°C° 0 mm 2 mps 701 mmHg 32%
Show more